Back to catalog

SVYATOBOR-1

AliveScienceSSO
NORAD 57187·PAYLOAD·🇷🇺 Russia
This satellite name has not been confirmed by official sources yet.

Launched Jun 27, 2023 from Vostochny Cosmodrome

Loading…

Next Passes (next 24 hours)

TLE

FreshSource: Space-Track

Epoch: Sep 14, 2026, 22:46 UTC

1 57187U 23091X   26257.94920926  .00008575  00000-0  31693-3 0  9996
2 57187  97.4996 322.3044 0010291 130.6541 229.5594 15.27923359178014

Track SVYATOBOR-1 in real time with AllMySat

Download on the App Store